THY384 LFMN-LSZH

Flight info

Callsign THY384
Flight time 0h 52m
Altitude 36000
Route BASIP Y15 ANAKI DCT CANNE Z651 KELIP
Aircraft A20N/M-SDE2E3FGHIRWXY/LB1

Departure

Time 2026-04-26 11:57
Airport Nice-Côte d'Azur Airport (LFMN)

Arrival

Time 2026-04-26 12:49
Airport Zürich Airport (LSZH)
Time Latitude Longitude Altitude Speed Heading
2026-04-26 11:23 43.66506 7.21532 21 ft 0 kts 315°
2026-04-26 11:45 43.66490 7.21554 24 ft 4 kts 315°
2026-04-26 11:45 43.66475 7.21575 24 ft 4 kts 307°
2026-04-26 11:45 43.66466 7.21603 22 ft 4 kts 244°
2026-04-26 11:45 43.66480 7.21626 25 ft 2 kts 225°
2026-04-26 11:46 43.66481 7.21627 25 ft 0 kts 225°
2026-04-26 11:50 43.66477 7.21622 25 ft 2 kts 225°
2026-04-26 11:50 43.66456 7.21593 22 ft 6 kts 225°
2026-04-26 11:51 43.66416 7.21538 21 ft 10 kts 224°
2026-04-26 11:51 43.66361 7.21457 21 ft 13 kts 234°
2026-04-26 11:51 43.66293 7.21354 21 ft 16 kts 225°
2026-04-26 11:51 43.66208 7.21236 21 ft 19 kts 225°
2026-04-26 11:52 43.66118 7.21115 21 ft 18 kts 225°
2026-04-26 11:52 43.66036 7.21001 21 ft 15 kts 225°
2026-04-26 11:52 43.65957 7.20891 21 ft 13 kts 225°
2026-04-26 11:52 43.65883 7.20797 21 ft 16 kts 220°
2026-04-26 11:53 43.65796 7.20682 21 ft 19 kts 225°
2026-04-26 11:53 43.65698 7.20548 21 ft 21 kts 225°
2026-04-26 11:53 43.65601 7.20415 21 ft 15 kts 225°
2026-04-26 11:54 43.65459 7.20219 21 ft 16 kts 225°
2026-04-26 11:54 43.65360 7.20188 22 ft 16 kts 155°
2026-04-26 11:54 43.65280 7.20288 20 ft 14 kts 135°
2026-04-26 11:54 43.65205 7.20391 21 ft 16 kts 135°
2026-04-26 11:55 43.65122 7.20505 21 ft 18 kts 135°
2026-04-26 11:55 43.65052 7.20601 21 ft 12 kts 135°
2026-04-26 11:55 43.65006 7.20663 22 ft 7 kts 133°
2026-04-26 11:55 43.65018 7.20723 24 ft 6 kts 47°
2026-04-26 11:56 43.65020 7.20726 24 ft 0 kts 46°
2026-04-26 11:56 43.65031 7.20741 25 ft 16 kts 46°
2026-04-26 11:56 43.65292 7.21099 24 ft 87 kts 45°
2026-04-26 11:56 43.65856 7.21874 21 ft 139 kts 45°
2026-04-26 11:57 43.66574 7.22903 471 ft 145 kts 49°
2026-04-26 11:57 43.67182 7.23980 1102 ft 141 kts 63°
2026-04-26 11:57 43.67547 7.25242 1663 ft 143 kts 78°
2026-04-26 11:57 43.67687 7.26649 2125 ft 154 kts 88°
2026-04-26 11:58 43.67702 7.28186 2672 ft 166 kts 92°
2026-04-26 11:58 43.67653 7.29842 3257 ft 180 kts 91°
2026-04-26 11:58 43.67630 7.31487 3785 ft 194 kts 91°
2026-04-26 11:58 43.67615 7.33499 4373 ft 211 kts 90°
2026-04-26 11:59 43.67597 7.35585 4907 ft 225 kts 91°
2026-04-26 11:59 43.67571 7.37755 5447 ft 225 kts 91°
2026-04-26 11:59 43.67541 7.39913 6006 ft 226 kts 91°
2026-04-26 11:59 43.67510 7.42089 6558 ft 237 kts 91°
2026-04-26 12:00 43.67476 7.44450 7094 ft 247 kts 91°
2026-04-26 12:00 43.67443 7.46848 7632 ft 249 kts 89°
2026-04-26 12:00 43.67622 7.49221 8172 ft 250 kts 77°
2026-04-26 12:00 43.68139 7.51515 8711 ft 253 kts 69°
2026-04-26 12:01 43.68770 7.53816 9273 ft 263 kts 69°
2026-04-26 12:01 43.69415 7.56222 9847 ft 277 kts 69°
2026-04-26 12:01 43.70089 7.58744 10399 ft 284 kts 67°
2026-04-26 12:01 43.71065 7.61194 10946 ft 299 kts 59°
2026-04-26 12:02 43.72188 7.63704 11494 ft 315 kts 58°
2026-04-26 12:02 43.73375 7.66325 12043 ft 329 kts 58°
2026-04-26 12:02 43.74612 7.69061 12613 ft 341 kts 58°
2026-04-26 12:02 43.75875 7.71868 13184 ft 345 kts 58°
2026-04-26 12:03 43.77151 7.74716 13753 ft 350 kts 58°
2026-04-26 12:03 43.78436 7.77594 14293 ft 353 kts 58°
2026-04-26 12:03 43.79734 7.80503 14805 ft 358 kts 58°
2026-04-26 12:03 43.81051 7.83460 15345 ft 363 kts 58°
2026-04-26 12:04 43.82385 7.86457 15882 ft 368 kts 58°
2026-04-26 12:04 43.83736 7.89496 16435 ft 375 kts 58°
2026-04-26 12:04 43.85116 7.92603 16996 ft 383 kts 58°
2026-04-26 12:04 43.86527 7.95782 17570 ft 391 kts 58°
2026-04-26 12:05 43.87961 7.99017 18157 ft 398 kts 58°
2026-04-26 12:05 43.89420 8.02313 18712 ft 404 kts 58°
2026-04-26 12:05 43.90901 8.05663 19225 ft 411 kts 58°
2026-04-26 12:05 43.92404 8.09066 19753 ft 416 kts 58°
2026-04-26 12:06 43.93924 8.12512 20287 ft 421 kts 58°
2026-04-26 12:06 43.95458 8.15994 20832 ft 425 kts 58°
2026-04-26 12:06 43.97008 8.19517 21385 ft 430 kts 58°
2026-04-26 12:06 43.98571 8.23072 21950 ft 433 kts 58°
2026-04-26 12:07 44.00143 8.26653 22524 ft 436 kts 58°
2026-04-26 12:07 44.01724 8.30261 23113 ft 439 kts 58°
2026-04-26 12:07 44.03315 8.33895 23726 ft 441 kts 58°
2026-04-26 12:07 44.04909 8.37540 24229 ft 443 kts 58°
2026-04-26 12:08 44.06510 8.41207 24746 ft 444 kts 58°
2026-04-26 12:08 44.08093 8.44836 25264 ft 445 kts 58°
2026-04-26 12:08 44.09697 8.48518 25797 ft 445 kts 58°
2026-04-26 12:08 44.11302 8.52204 26338 ft 445 kts 58°
2026-04-26 12:09 44.12903 8.55891 26893 ft 445 kts 58°
2026-04-26 12:09 44.14504 8.59579 27458 ft 444 kts 58°
2026-04-26 12:09 44.16099 8.63259 28034 ft 443 kts 58°
2026-04-26 12:09 44.17825 8.66780 28619 ft 439 kts 47°
2026-04-26 12:10 44.20041 8.69650 29220 ft 433 kts 33°
2026-04-26 12:10 44.22636 8.71696 29833 ft 426 kts 20°
2026-04-26 12:10 44.25451 8.72851 30433 ft 419 kts
2026-04-26 12:10 44.28328 8.73199 30968 ft 413 kts
2026-04-26 12:11 44.31186 8.73410 31504 ft 409 kts
2026-04-26 12:11 44.34015 8.73624 32061 ft 405 kts
2026-04-26 12:11 44.36813 8.73839 32641 ft 400 kts
2026-04-26 12:11 44.39573 8.74052 33208 ft 394 kts
2026-04-26 12:12 44.42300 8.74262 33681 ft 392 kts
2026-04-26 12:12 44.45018 8.74470 34066 ft 391 kts
2026-04-26 12:12 44.47730 8.74679 34409 ft 389 kts
2026-04-26 12:12 44.49558 8.74819 34639 ft 388 kts 360°
2026-04-26 12:13 44.53113 8.75094 35086 ft 385 kts 360°
2026-04-26 12:13 44.55777 8.75301 35425 ft 382 kts 360°
2026-04-26 12:13 44.58429 8.75506 35682 ft 382 kts 360°
2026-04-26 12:13 44.61081 8.75711 35929 ft 381 kts 360°
2026-04-26 12:14 44.63727 8.75916 36082 ft 383 kts 360°
2026-04-26 12:14 44.69114 8.76331 36141 ft 394 kts 360°
2026-04-26 12:15 44.74671 8.76762 36131 ft 406 kts
2026-04-26 12:15 44.80409 8.77209 36128 ft 419 kts
2026-04-26 12:16 44.86314 8.77670 36130 ft 432 kts
2026-04-26 12:16 44.92402 8.78148 36111 ft 444 kts
2026-04-26 12:17 44.98655 8.78638 36108 ft 454 kts
2026-04-26 12:17 45.04963 8.79137 36131 ft 454 kts
2026-04-26 12:18 45.11272 8.79636 36131 ft 454 kts
2026-04-26 12:18 45.17580 8.80135 36127 ft 454 kts
2026-04-26 12:19 45.23890 8.80634 36090 ft 454 kts
2026-04-26 12:19 45.30155 8.81131 36102 ft 455 kts
2026-04-26 12:20 45.36477 8.81634 36090 ft 455 kts
2026-04-26 12:20 45.42798 8.82138 36105 ft 455 kts
2026-04-26 12:21 45.49125 8.82643 36101 ft 456 kts
2026-04-26 12:21 45.55461 8.83150 36097 ft 456 kts
2026-04-26 12:22 45.61804 8.83659 36107 ft 456 kts
2026-04-26 12:22 45.68144 8.84169 36108 ft 457 kts
2026-04-26 12:23 45.74488 8.84681 36098 ft 457 kts
2026-04-26 12:23 45.80832 8.85193 36102 ft 457 kts
2026-04-26 12:24 45.87185 8.85708 36103 ft 457 kts
2026-04-26 12:24 45.93537 8.86224 36105 ft 457 kts
2026-04-26 12:25 46.03064 8.86997 36108 ft 457 kts
2026-04-26 12:25 46.09406 8.87516 35786 ft 454 kts
2026-04-26 12:26 46.11498 8.87687 35432 ft 454 kts
2026-04-26 12:26 46.14659 8.87942 34662 ft 457 kts 360°
2026-04-26 12:26 46.17822 8.87923 33933 ft 454 kts 353°
2026-04-26 12:26 46.20968 8.87461 33041 ft 455 kts 351°
2026-04-26 12:27 46.24123 8.86981 32179 ft 457 kts 351°
2026-04-26 12:27 46.27294 8.86510 31306 ft 459 kts 351°
2026-04-26 12:27 46.30473 8.86040 30548 ft 458 kts 351°
2026-04-26 12:27 46.33627 8.85572 29900 ft 453 kts 351°
2026-04-26 12:28 46.36746 8.85106 29235 ft 448 kts 351°
2026-04-26 12:28 46.39833 8.84643 28525 ft 445 kts 351°
2026-04-26 12:28 46.42902 8.84182 27844 ft 442 kts 351°
2026-04-26 12:28 46.45944 8.83725 27307 ft 436 kts 352°
2026-04-26 12:29 46.48952 8.83270 26691 ft 433 kts 352°
2026-04-26 12:29 46.51929 8.82819 26103 ft 429 kts 352°
2026-04-26 12:29 46.57820 8.81925 24915 ft 422 kts 352°
2026-04-26 12:30 46.60733 8.81483 24322 ft 419 kts 352°
2026-04-26 12:30 46.63623 8.81046 23766 ft 417 kts 352°
2026-04-26 12:30 46.66488 8.80612 23194 ft 411 kts 352°
2026-04-26 12:31 46.72131 8.79753 21975 ft 404 kts 352°
2026-04-26 12:31 46.74915 8.79329 21373 ft 401 kts 352°
2026-04-26 12:31 46.77682 8.78907 20758 ft 398 kts 352°
2026-04-26 12:31 46.80417 8.78490 20228 ft 394 kts 352°
2026-04-26 12:32 46.83133 8.78075 19661 ft 391 kts 352°
2026-04-26 12:32 46.85832 8.77662 19146 ft 388 kts 352°
2026-04-26 12:32 46.91158 8.76847 18041 ft 382 kts 352°
2026-04-26 12:33 46.93787 8.76443 17431 ft 380 kts 353°
2026-04-26 12:33 46.96398 8.76042 16926 ft 374 kts 352°
2026-04-26 12:33 46.98980 8.75639 16376 ft 372 kts 352°
2026-04-26 12:33 47.01541 8.75231 15828 ft 369 kts 352°
2026-04-26 12:34 47.04082 8.74826 15303 ft 366 kts 352°
2026-04-26 12:34 47.06598 8.74425 14766 ft 363 kts 351°
2026-04-26 12:34 47.09073 8.73816 14225 ft 359 kts 348°
2026-04-26 12:34 47.11526 8.73166 13742 ft 356 kts 349°
2026-04-26 12:35 47.13949 8.72527 13634 ft 356 kts 348°
2026-04-26 12:35 47.16399 8.71882 13481 ft 358 kts 348°
2026-04-26 12:35 47.18847 8.71236 13324 ft 356 kts 348°
2026-04-26 12:35 47.21284 8.70591 13122 ft 355 kts 349°
2026-04-26 12:36 47.23703 8.69954 12989 ft 353 kts 349°
2026-04-26 12:36 47.26117 8.69253 12816 ft 353 kts 344°
2026-04-26 12:36 47.28432 8.68083 12641 ft 352 kts 335°
2026-04-26 12:36 47.30636 8.66561 12500 ft 350 kts 334°
2026-04-26 12:37 47.32836 8.65050 12346 ft 346 kts 334°
2026-04-26 12:37 47.34991 8.63578 12243 ft 335 kts 334°
2026-04-26 12:37 47.37066 8.62151 12128 ft 322 kts 332°
2026-04-26 12:37 47.38963 8.60531 12000 ft 309 kts 328°
2026-04-26 12:38 47.40769 8.58925 11889 ft 297 kts 328°
2026-04-26 12:38 47.42512 8.57385 11681 ft 289 kts 328°
2026-04-26 12:38 47.44215 8.55840 11407 ft 283 kts 322°
2026-04-26 12:38 47.45573 8.53636 11180 ft 309 kts 298°
2026-04-26 12:39 47.46407 8.50614 11114 ft 322 kts 288°
2026-04-26 12:39 47.47090 8.47495 10845 ft 316 kts 287°
2026-04-26 12:39 47.47726 8.44411 10527 ft 311 kts 287°
2026-04-26 12:39 47.48351 8.41377 10207 ft 306 kts 287°
2026-04-26 12:40 47.48971 8.38400 9876 ft 300 kts 287°
2026-04-26 12:40 47.49586 8.35477 9540 ft 296 kts 287°
2026-04-26 12:40 47.50197 8.32598 9203 ft 291 kts 289°
2026-04-26 12:40 47.51073 8.29933 8849 ft 287 kts 304°
2026-04-26 12:41 47.52371 8.27742 8533 ft 282 kts 318°
2026-04-26 12:41 47.53806 8.25802 8215 ft 279 kts 318°
2026-04-26 12:41 47.55208 8.23879 7886 ft 277 kts 317°
2026-04-26 12:41 47.56610 8.21944 7578 ft 275 kts 318°
2026-04-26 12:42 47.58013 8.20027 7258 ft 274 kts 317°
2026-04-26 12:42 47.59412 8.18133 6940 ft 271 kts 323°
2026-04-26 12:42 47.61064 8.16966 6613 ft 258 kts 351°
2026-04-26 12:42 47.62791 8.17069 6274 ft 243 kts 20°
2026-04-26 12:43 47.64131 8.18377 6118 ft 225 kts 52°
2026-04-26 12:43 47.64745 8.20456 6027 ft 223 kts 84°
2026-04-26 12:43 47.64490 8.22723 5988 ft 229 kts 112°
2026-04-26 12:43 47.63843 8.24874 6009 ft 227 kts 113°
2026-04-26 12:44 47.63177 8.27005 5845 ft 229 kts 114°
2026-04-26 12:44 47.62509 8.29154 5479 ft 229 kts 113°
2026-04-26 12:44 47.61845 8.31282 5161 ft 226 kts 114°
2026-04-26 12:44 47.61185 8.33401 4857 ft 227 kts 114°
2026-04-26 12:45 47.60515 8.35525 4536 ft 226 kts 114°
2026-04-26 12:45 47.59828 8.37534 4244 ft 210 kts 124°
2026-04-26 12:45 47.58901 8.39066 4120 ft 195 kts 133°
2026-04-26 12:45 47.57867 8.40458 4012 ft 204 kts 135°
2026-04-26 12:46 47.56833 8.41855 3719 ft 198 kts 134°
2026-04-26 12:46 47.55814 8.43247 3482 ft 200 kts 134°
2026-04-26 12:46 47.54824 8.44595 3209 ft 187 kts 134°
2026-04-26 12:46 47.53905 8.45854 2965 ft 173 kts 136°
2026-04-26 12:47 47.53053 8.47009 2749 ft 159 kts 135°
2026-04-26 12:47 47.52264 8.48075 2532 ft 147 kts 134°
2026-04-26 12:47 47.51519 8.49102 2333 ft 150 kts 134°
2026-04-26 12:47 47.50752 8.50141 2143 ft 151 kts 134°
2026-04-26 12:48 47.49986 8.51174 1948 ft 146 kts 134°
2026-04-26 12:48 47.49247 8.52168 1730 ft 141 kts 131°
2026-04-26 12:48 47.48538 8.53151 1524 ft 142 kts 131°
2026-04-26 12:48 47.47815 8.54142 1408 ft 137 kts 133°
2026-04-26 12:49 47.47326 8.54819 1387 ft 63 kts 137°
2026-04-26 12:49 47.47016 8.55238 1387 ft 57 kts 137°
2026-04-26 12:49 47.46777 8.55556 1397 ft 40 kts 145°
2026-04-26 12:49 47.46547 8.55694 1396 ft 22 kts 167°
2026-04-26 12:50 47.46436 8.55732 1396 ft 1 kts 167°
2026-04-26 12:50 47.46435 8.55732 1396 ft 0 kts 167°
2026-04-26 12:51 47.46432 8.55733 1396 ft 1 kts 167°
2026-04-26 12:52 47.46416 8.55739 1402 ft 4 kts 165°
2026-04-26 12:52 47.46365 8.55781 1403 ft 11 kts 138°
2026-04-26 12:52 47.46303 8.55865 1408 ft 13 kts 137°
2026-04-26 12:52 47.46239 8.55954 1403 ft 11 kts 137°
2026-04-26 12:53 47.46173 8.56001 1408 ft 11 kts 180°
2026-04-26 12:53 47.46090 8.55989 1407 ft 13 kts 186°
2026-04-26 12:53 47.45992 8.55974 1406 ft 17 kts 186°
2026-04-26 12:53 47.45911 8.55939 1407 ft 3 kts 200°
2026-04-26 12:54 47.45887 8.55925 1414 ft 4 kts 200°
2026-04-26 12:54 47.45861 8.55912 1412 ft 4 kts 200°
2026-04-26 12:54 47.45841 8.55901 1409 ft 2 kts 200°
2026-04-26 12:54 47.45837 8.55899 1409 ft 0 kts 200°
2026-04-26 12:56 47.45835 8.55897 1416 ft 2 kts 200°
2026-04-26 12:56 47.45780 8.55878 1412 ft 12 kts 187°
2026-04-26 12:57 47.45686 8.55862 1413 ft 12 kts 185°
2026-04-26 12:57 47.45644 8.55782 1412 ft 13 kts 278°
2026-04-26 12:57 47.45656 8.55619 1404 ft 18 kts 275°
2026-04-26 12:58 47.45679 8.55297 1405 ft 12 kts 276°
2026-04-26 12:58 47.45648 8.55204 1399 ft 11 kts 180°
2026-04-26 12:58 47.45570 8.55252 1404 ft 13 kts 155°
2026-04-26 12:58 47.45483 8.55313 1404 ft 15 kts 155°
2026-04-26 12:59 47.45388 8.55378 1403 ft 14 kts 155°
2026-04-26 12:59 47.45319 8.55445 1404 ft 11 kts 122°
2026-04-26 12:59 47.45285 8.55536 1409 ft 9 kts 118°
2026-04-26 12:59 47.45272 8.55627 1409 ft 10 kts 96°
2026-04-26 13:00 47.45264 8.55738 1409 ft 12 kts 96°
2026-04-26 13:00 47.45255 8.55854 1410 ft 9 kts 96°
2026-04-26 13:00 47.45255 8.55923 1406 ft 5 kts 62°
2026-04-26 13:00 47.45291 8.55936 1406 ft 6 kts
2026-04-26 13:01 47.45326 8.55942 1410 ft 2 kts
2026-04-26 13:01 47.45330 8.55943 1411 ft 0 kts
2026-04-26 13:09 47.45329 8.55943 1406 ft 0 kts